Погода в Адыгейске

Россия / Республика Адыгея     44°53′05″N   39°11′26″E
темп.,
°C
ветер,
м/с
пор.,
м/с
влажн.,
%
обл.,
%
осадки,
мм/ч
давл.,
гПа
погр.,
м
19 сентября, вс
вс1900:00+18ю348589 0.0 101385
03:00+18ююз128695 0.0 101249
06:00+17ю228639 0.0 101252
09:00+21ююв336441 0.0 1012328
12:00+24ююз4652100 0.0 1012865
15:00+24зюз5844100 0.0 1012703
18:00+20ю3662100 0.1 1012234
21:00+19ю6127559 2.1 1012553
20 сентября, пн
пн2000:00+20ююз81576100 0.0 1012861
03:00+18юз7128523 0.4 1012611
06:00+18юз6108715 1.8 1012448
09:00+21юз697420 4.4 1013672
12:00+24зюз684939 0.8 10131585
15:00+24юз564799 0.8 1012153
18:00+22юз7105499 0.0 1013347
21:00+19юз3566100 0.0 1014102
21 сентября, вт
вт2100:00+18юз226632 0.0 101457
03:00+18всв226883 0.1 1014124
06:00+17вюв347070 0.0 1014129
09:00+20вюв4655100 0.0 1012403
12:00+23з1247100 0.0 1011622
15:00+17ссз4590100 6.6 1011275
18:00+14сз81091100 7.1 1014513
21:00+14зсз478999 7.3 1016497
22 сентября, ср
ср2200:00+14зсз57750 0.2 1016620
03:00+11зсз47852 0.2 1017283
06:00+12зсз3479100 0.0 1017291
09:00+13з1274100 0.1 1017421
12:00+15зсз126062 0.1 10161079
15:00+15зсз235899 0.2 1016892
18:00+14сз346514 0.0 1016383
21:00+12ссз11738 0.0 1016147
23 сентября, чт
чт2300:00+12всв017499 0.0 1015155
03:00+11в23785 0.0 1014146
06:00+11в3477100 0.0 1013190
09:00+15всв4665100 0.1 1012599
12:00+12св3491100 5.3 1012331
15:00+14ссв4486100 6.4 1011538
18:00+13ссв5689100 0.1 1011425
21:00+12ссв5791100 0.2 1011408